This is the latest recevied weather packets stored in our database for station/object OE3BCB-14. If no packets are shown the sender has not sent any weather packets the latest 10 day(s).
| Time | Temp. | Humidity | Pressure | Rain* | Wind** | Luminosity | Snow |
|---|---|---|---|---|---|---|---|
| 1777640702 | 35° C | 20% | 1028.8 hPa | - | - | 127 W/m² | - |
| 1777640400 | 32.22° C | 21% | 1028.9 hPa | - | - | 116 W/m² | - |
| 1777640097 | 30.56° C | 22% | 1029 hPa | - | - | 114 W/m² | - |
| 1777639795 | 30.56° C | 21% | 1029.1 hPa | - | - | 113 W/m² | - |
| 1777639493 | 27.78° C | 22% | 1029.2 hPa | - | - | 112 W/m² | - |
| 1777639190 | 29.44° C | 21% | 1029.2 hPa | - | - | 68 W/m² | - |
| 1777638888 | 27.78° C | 21% | 1029.2 hPa | - | - | 126 W/m² | - |
| 1777638585 | 27.78° C | 22% | 1029.3 hPa | - | - | 118 W/m² | - |
| 1777638283 | 29.44° C | 20% | 1029.3 hPa | - | - | 47 W/m² | - |
| 1777637981 | 30° C | 21% | 1029.4 hPa | - | - | 81 W/m² | - |
| 1777637678 | 32.22° C | 21% | 1029.5 hPa | - | - | 76 W/m² | - |
| 1777637376 | 30° C | 23% | 1029.5 hPa | - | - | 67 W/m² | - |
| 1777637073 | 28.89° C | 23% | 1029.7 hPa | - | - | 64 W/m² | - |
| 1777636771 | 28.33° C | 22% | 1029.7 hPa | - | - | 63 W/m² | - |
| 1777636468 | 28.89° C | 23% | 1029.7 hPa | - | - | 65 W/m² | - |
| 1777635864 | 29.44° C | 22% | 1029.8 hPa | - | - | 68 W/m² | - |
| 1777635561 | 28.33° C | 23% | 1029.8 hPa | - | - | 71 W/m² | - |
| 1777635259 | 28.89° C | 23% | 1029.9 hPa | - | - | 71 W/m² | - |
| 1777634956 | 28.89° C | 23% | 1030 hPa | - | - | 74 W/m² | - |
| 1777634654 | 29.44° C | 24% | 1030 hPa | - | - | 79 W/m² | - |
| 1777634352 | 27.78° C | 24% | 1030.1 hPa | - | - | 75 W/m² | - |
| 1777634049 | 28.89° C | 22% | 1030.3 hPa | - | - | 77 W/m² | - |
| 1777633747 | 28.33° C | 25% | 1030.3 hPa | - | - | 77 W/m² | - |
| 1777633444 | 27.22° C | 25% | 1030.3 hPa | - | - | 76 W/m² | - |
| 1777633142 | 26.67° C | 25% | 1030.4 hPa | - | - | 76 W/m² | - |
* Rain since midnight (hover to see other rain measurements)
** Current wind speed in m/s (hover to see current wind gust speed)